Location: Recife
(8.0585°S, 34.8848°W)
Time: 21:37:56
(UTC-03:00)

Altair - Pass Details

Date: 22 April 2026
Orbit: 1501 x 1682 km, 47.2° (Epoch: 17 May)

Event Time Altitude Azimuth Distance (km) Brightness Sun altitude
Rises 22:02:55 0° 275° (W) 4,643 10.3 -71.0°
Enters shadow 22:03:16 - 274° (W) 4,557 10.2 -71.1°
Reaches altitude 10° 22:07:34 10° 255° (WSW) 3,653 - -72.1°
Maximum altitude 22:12:47 16° 220° (SW) 3,183 - -73.4°
Drops below altitude 10° 22:18:02 10° 184° (S) 3,666 - -74.6°
Sets 22:22:47 0° 163° (SSE) 4,668 - -75.7°
